[[{"header":{"parameterUnit":"m.s-1","parameterCategory":1,"la1":30.2991,"la2":30.254,"lo1":-89.0895,"lo2":-89.0444,"dy":0.0017,"dx":0.0017,"nx":28,"ny":28,"refTime":"2025-01-23T03:00:00:Z","depth":0,"parameterNumber":2,"parameterNumberName":"U-component_of_WINDS"},"data":[0,0,0,0,0,0,0,0,0,0,0,0,0,0,0,0,0,0,0,0,0,0,0,0,0,0,0,0,0,0,0,0,0,0,0,0,0,0,0,0,0,0,0,0,0,0,0,0,0,0,0,0,0,0,0,0,0,0,4.0438,4.044,0,4.0551,4.0553,4.0554,4.0539,4.0537,4.0536,4.0534,4.0653,4.0658,4.0663,0,0,0,0,0,0,0,0,0,0,0,0,0,4.0214,4.0219,4.0438,4.044,4.0441,4.0551,4.0553,4.0554,4.054,4.0537,4.0535,4.0533,4.0652,4.0658,4.0663,0,0,0,0,0,0,0,0,0,0,0,0,0,4.0318,4.022,4.0438,4.0447,4.0449,4.0551,4.0553,4.0555,4.054,4.0537,4.0535,4.0532,4.065,4.0657,4.0664,4.0766,0,0,4.0687,4.069,0,0,0,0,0,0,0,0,4.0312,4.0326,4.0444,4.0447,4.0449,4.0528,4.0518,4.0625,4.0541,4.0506,4.0534,4.0531,4.0614,4.0624,4.0652,4.0771,4.0776,4.0687,4.0692,4.0695,4.0697,0,0,0,0,0,0,0,4.0305,4.0321,4.0483,4.0446,4.0449,4.0447,4.0459,4.0538,4.0574,4.0508,4.0508,4.0521,4.0615,4.0645,4.0654,4.0778,4.0687,4.0694,4.0698,4.0701,4.0988,4.0991,0,0,0,0,0,0,4.0295,4.0315,4.0479,4.0486,4.0372,4.0453,4.0466,4.0506,4.0573,4.0581,4.0523,4.052,4.0634,4.0646,4.0659,4.0783,4.0695,4.0702,4.0706,4.0985,4.0989,4.0993,0,0,0,0,0,0,4.029,4.031,4.0475,4.0401,4.0422,4.046,4.0504,4.0509,4.0539,4.0585,4.0591,4.0547,4.0632,4.0648,4.0739,4.0787,4.0705,4.0712,4.0981,4.0986,4.0991,4.1032,0,0,0,0,0,0,4.0284,4.0308,4.0346,4.0402,4.0426,4.0552,4.0507,4.0514,4.0551,4.0548,4.0608,4.0616,4.0631,4.0728,4.0747,4.0796,4.0718,4.0977,4.0984,4.0989,4.1026,4.1037,4.1047,0,0,0,0,0,4.0276,4.0353,4.0348,4.0368,4.0473,4.0555,4.0569,4.0584,4.0555,4.0594,4.0624,4.0614,4.0779,4.0738,4.0758,4.081,4.0974,4.0982,4.0989,4.1022,4.1035,4.1046,0,0,0,0,0,0,4.0303,4.036,4.0355,4.0452,4.0499,4.0552,4.0602,4.0597,4.0654,4.0648,4.0665,4.0679,4.0772,4.08,4.0753,4.0913,4.0873,4.0885,4.0891,4.0904,4.0914,4.0905,4.0724,0,0,0,0,0,4.032,4.038,4.0428,4.0509,4.0532,4.0563,4.0599,4.0607,4.0656,4.0676,4.0712,4.0761,4.0825,4.0866,4.0926,4.103,4.1044,4.1076,4.1086,4.1094,4.1105,4.1164,4.1179,4.1016,4.1016,4.1016,0,0,4.0356,4.0395,4.0432,4.0515,4.0552,4.0616,4.058,4.0648,4.0696,4.0687,4.0775,4.0803,4.086,4.0958,4.1003,4.0985,4.1153,4.1104,4.111,4.1116,4.1173,4.1188,4.1202,4.1021,4.102,4.102,0,0,4.0454,4.0489,4.0561,4.0599,4.0655,4.0675,4.0693,4.0747,4.0766,4.0854,4.0849,4.0907,4.1015,4.1056,4.109,4.1206,4.12,4.1225,4.1279,4.1336,4.1349,4.1361,4.1403,4.1418,4.1235,4.1235,4.1235,0,4.0492,4.0586,4.0599,4.0669,4.0707,4.07,4.0775,4.0811,4.0885,4.0912,4.0889,4.1025,4.1063,4.1171,4.12,4.1228,4.125,4.1219,4.1346,4.1358,4.1369,4.1409,4.1425,4.1238,4.1238,4.1238,4.1237,0,4.0631,4.0697,4.0749,4.0819,4.0863,4.0934,4.096,4.1003,4.1007,4.103,4.1121,4.1166,4.1236,4.1263,4.1268,4.1373,4.136,4.1342,4.1302,4.1387,4.1425,4.1441,4.1242,4.1241,4.124,4.124,0,0,4.0749,4.0826,4.0845,4.0878,4.094,4.0991,4.1064,4.1131,4.1168,4.122,4.1282,4.1374,4.1358,4.1398,4.1407,4.1458,4.1548,4.1434,4.1435,4.1454,4.1669,4.1682,4.17,4.1544,4.1547,4.155,4.1664,0,4.0855,4.0981,4.0995,4.1108,4.117,4.1166,4.1229,4.1275,4.1299,4.1356,4.1383,4.1449,4.1422,4.1446,4.1495,4.1527,4.1592,4.1518,4.1604,4.1607,4.159,4.172,4.1735,4.1841,4.168,4.1682,4.1684,0,4.0994,4.1049,4.1168,4.1222,4.1249,4.1305,4.1369,4.1423,4.1476,4.149,4.1535,4.1539,4.1615,4.1572,4.1679,4.1629,4.1665,4.1686,4.1691,4.17,4.1651,4.1734,4.1875,4.1891,4.1708,4.1706,4.1704,0,4.107,4.1173,4.1258,4.1286,4.1351,4.1391,4.1421,4.147,4.1511,4.1567,4.1594,4.1659,4.1695,4.1746,4.1768,4.1734,4.1874,4.1833,4.189,4.1889,4.192,4.1918,4.207,4.1942,4.1941,4.1941,4.1941,0,4.1186,4.126,4.1293,4.1345,4.1428,4.1445,4.1527,4.1555,4.1599,4.1659,4.1659,4.1715,4.174,4.18,4.1818,4.1905,4.1921,4.1936,4.194,4.1936,4.1935,4.1961,4.1954,4.1945,4.1944,4.1944,4.1943,0,4.1285,4.131,4.1402,4.1457,4.1472,4.1531,4.1578,4.163,4.1653,4.1729,4.1747,4.1785,4.1856,4.1883,4.197,4.1982,4.2083,4.208,4.2064,4.2066,4.2122,4.2116,4.2296,4.2321,4.2176,4.2177,4.2178,0,4.1358,4.1414,4.1474,4.1513,4.1544,4.1607,4.1648,4.1667,4.171,4.1775,4.182,4.189,4.1948,4.2062,4.2098,4.2166,4.2165,4.2224,4.2176,4.2171,4.2168,4.2164,4.2171,4.2233,4.2234,4.2236,4.2237,0,4.1485,4.1495,4.1553,4.1617,4.1665,4.1716,4.1766,4.1798,4.1826,4.1874,4.1946,4.1991,4.208,4.2151,4.222,4.2252,4.225,4.2251,4.2268,4.2266,4.2255,4.2263,4.209,4.2247,4.2246,4.2246,4.2245,4.2244,4.1574,4.1625,4.1675,4.1741,4.178,4.1826,4.1878,4.1908,4.1968,4.2041,4.2049,4.2127,4.2181,4.2273,4.2308,4.2371,4.2355,4.2379,4.2386,4.2392,4.2396,4.2244,4.2383,4.2383,4.2383,4.2383,4.2382,0,4.1703,4.1735,4.1795,4.1864,4.1916,4.1908,4.1963,4.2008,4.2076,4.2125,4.2181,4.2265,4.2334,4.2376,4.2446,4.2488,4.2489,4.2506,4.2504,4.2511,4.2405,4.2384,4.2504,4.2504,4.2504,4.2504,4.2504,4.2504,4.1776,4.1861,4.1877,4.1982,4.2015,4.209,4.2122,4.2166,4.2205,4.2299,4.2356,4.2382,4.2429,4.2502,4.2566,4.2576,4.2603,4.2621,4.2631,4.2531,4.2519,4.2507,4.2487,4.2626,4.2627,4.2732,4.2733,4.2733]},{"header":{"parameterUnit":"m.s-1","parameterCategory":1,"la1":30.2991,"la2":30.254,"lo1":-89.0895,"lo2":-89.0444,"dy":0.0017,"dx":0.0017,"nx":28,"ny":28,"refTime":"2025-01-23T03:00:00:Z","depth":0,"parameterNumber":3,"parameterNumberName":"V-component_of_WINDS"},"data":[0,0,0,0,0,0,0,0,0,0,0,0,0,0,0,0,0,0,0,0,0,0,0,0,0,0,0,0,0,0,0,0,0,0,0,0,0,0,0,0,0,0,0,0,0,0,0,0,0,0,0,0,0,0,0,0,0,0,-3.832,-3.8321,0,-3.8361,-3.8361,-3.8362,-3.8357,-3.8356,-3.8355,-3.8355,-3.8393,-3.8394,-3.8396,0,0,0,0,0,0,0,0,0,0,0,0,0,-3.8235,-3.8237,-3.832,-3.8321,-3.8321,-3.8361,-3.8361,-3.8362,-3.8357,-3.8356,-3.8355,-3.8354,-3.8392,-3.8394,-3.8396,0,0,0,0,0,0,0,0,0,0,0,0,0,-3.8274,-3.8237,-3.832,-3.8324,-3.8324,-3.8361,-3.8362,-3.8362,-3.8357,-3.8356,-3.8355,-3.8354,-3.8392,-3.8394,-3.8396,-3.8431,0,0,-3.8404,-3.8405,0,0,0,0,0,0,0,0,-3.8271,-3.8277,-3.8323,-3.8323,-3.8324,-3.8353,-3.8345,-3.8385,-3.8357,-3.8344,-3.8355,-3.8354,-3.838,-3.8383,-3.8393,-3.8433,-3.8434,-3.8404,-3.8405,-3.8406,-3.8407,0,0,0,0,0,0,0,-3.8269,-3.8275,-3.8336,-3.8323,-3.8324,-3.8322,-3.8327,-3.8353,-3.8367,-3.8345,-3.8345,-3.835,-3.838,-3.8391,-3.8394,-3.8435,-3.8404,-3.8406,-3.8407,-3.8408,-3.8506,-3.8507,0,0,0,0,0,0,-3.8266,-3.8273,-3.8335,-3.8337,-3.8295,-3.8324,-3.8329,-3.8345,-3.8367,-3.8369,-3.8351,-3.835,-3.8387,-3.8391,-3.8395,-3.8438,-3.8406,-3.8409,-3.841,-3.8505,-3.8506,-3.8507,0,0,0,0,0,0,-3.8264,-3.8271,-3.8333,-3.8305,-3.8313,-3.8327,-3.8344,-3.8346,-3.8356,-3.8371,-3.8373,-3.8359,-3.8386,-3.8392,-3.8422,-3.8439,-3.841,-3.8412,-3.8503,-3.8505,-3.8507,-3.8522,0,0,0,0,0,0,-3.8261,-3.8271,-3.8284,-3.8305,-3.8314,-3.8361,-3.8345,-3.8347,-3.8361,-3.836,-3.8379,-3.8382,-3.8386,-3.8419,-3.8425,-3.8442,-3.8414,-3.8502,-3.8504,-3.8506,-3.852,-3.8524,-3.8528,0,0,0,0,0,-3.8258,-3.8286,-3.8285,-3.8293,-3.8332,-3.8362,-3.8367,-3.8372,-3.8362,-3.8376,-3.8386,-3.8381,-3.8436,-3.8422,-3.8429,-3.8446,-3.8501,-3.8503,-3.8506,-3.8519,-3.8524,-3.8528,0,0,0,0,0,0,-3.8265,-3.8289,-3.8288,-3.8324,-3.8341,-3.8361,-3.8378,-3.8377,-3.8396,-3.8394,-3.8399,-3.8404,-3.8435,-3.8444,-3.8428,-3.8482,-3.8467,-3.8471,-3.8474,-3.8479,-3.8483,-3.848,-3.8416,0,0,0,0,0,-3.8271,-3.8294,-3.8313,-3.8343,-3.8352,-3.8364,-3.8377,-3.838,-3.8397,-3.8404,-3.8416,-3.8432,-3.8453,-3.8467,-3.8487,-3.8522,-3.8526,-3.8537,-3.8541,-3.8544,-3.8547,-3.8567,-3.8572,-3.8516,-3.8516,-3.8516,0,0,-3.8282,-3.8298,-3.8312,-3.8344,-3.8358,-3.8381,-3.8369,-3.8394,-3.8411,-3.8407,-3.8437,-3.8447,-3.8465,-3.8499,-3.8514,-3.8507,-3.8564,-3.8547,-3.855,-3.8551,-3.857,-3.8575,-3.858,-3.8517,-3.8517,-3.8517,0,0,-3.8315,-3.833,-3.8357,-3.8371,-3.8393,-3.8401,-3.8407,-3.8428,-3.8435,-3.8466,-3.8464,-3.8483,-3.8519,-3.8533,-3.8545,-3.8585,-3.8581,-3.8591,-3.861,-3.8629,-3.8634,-3.8638,-3.8652,-3.8657,-3.8595,-3.8595,-3.8595,0,-3.8326,-3.8362,-3.837,-3.8396,-3.841,-3.8409,-3.8436,-3.8449,-3.8476,-3.8485,-3.8478,-3.8524,-3.8536,-3.8573,-3.8583,-3.8593,-3.86,-3.8589,-3.8633,-3.8637,-3.864,-3.8654,-3.8659,-3.8596,-3.8596,-3.8595,-3.8595,0,-3.8375,-3.84,-3.8419,-3.8447,-3.8463,-3.8489,-3.85,-3.8515,-3.8517,-3.8526,-3.8558,-3.8573,-3.8597,-3.8606,-3.8607,-3.8643,-3.8638,-3.8632,-3.8617,-3.8647,-3.866,-3.8665,-3.8597,-3.8597,-3.8596,-3.8596,0,0,-3.8411,-3.8445,-3.8451,-3.8465,-3.8489,-3.8508,-3.8534,-3.8559,-3.8572,-3.8591,-3.8613,-3.8644,-3.8639,-3.8652,-3.8655,-3.8672,-3.8704,-3.8664,-3.8664,-3.867,-3.8744,-3.8748,-3.8754,-3.8702,-3.8703,-3.8704,-3.8742,0,-3.8447,-3.8494,-3.8503,-3.8544,-3.8567,-3.8568,-3.8591,-3.8608,-3.8617,-3.8638,-3.8647,-3.867,-3.8661,-3.8669,-3.8686,-3.8696,-3.8718,-3.8694,-3.8721,-3.8722,-3.8716,-3.8761,-3.8766,-3.8801,-3.8748,-3.8748,-3.8749,0,-3.8494,-3.8516,-3.856,-3.8583,-3.8593,-3.8613,-3.8637,-3.8657,-3.8677,-3.8682,-3.8698,-3.87,-3.8726,-3.8712,-3.8748,-3.8731,-3.8743,-3.875,-3.8752,-3.8754,-3.8737,-3.8764,-3.8813,-3.8818,-3.8757,-3.8756,-3.8756,0,-3.8516,-3.8556,-3.8588,-3.8599,-3.8627,-3.8641,-3.8653,-3.8672,-3.8687,-3.8708,-3.8717,-3.874,-3.8753,-3.877,-3.8778,-3.8767,-3.8814,-3.88,-3.8818,-3.8818,-3.8827,-3.8827,-3.8878,-3.8836,-3.8836,-3.8836,-3.8836,0,-3.8554,-3.858,-3.8599,-3.8618,-3.8648,-3.8658,-3.8687,-3.8698,-3.8716,-3.8737,-3.8739,-3.8758,-3.8768,-3.8789,-3.8795,-3.8824,-3.883,-3.8834,-3.8835,-3.8834,-3.8833,-3.8841,-3.8838,-3.8838,-3.8837,-3.8837,-3.8837,0,-3.8583,-3.8596,-3.8631,-3.8655,-3.8662,-3.8683,-3.8703,-3.8722,-3.8732,-3.8759,-3.8765,-3.8781,-3.8806,-3.8816,-3.8845,-3.885,-3.8883,-3.8883,-3.8877,-3.8877,-3.8895,-3.8893,-3.8953,-3.8961,-3.8915,-3.8915,-3.8915,0,-3.8606,-3.8627,-3.8654,-3.8669,-3.8682,-3.8706,-3.8722,-3.8733,-3.8749,-3.8774,-3.8789,-3.8815,-3.8835,-3.8875,-3.8888,-3.8911,-3.8911,-3.893,-3.8914,-3.8912,-3.8911,-3.8909,-3.8911,-3.8933,-3.8933,-3.8934,-3.8934,0,-3.8645,-3.8651,-3.8675,-3.8701,-3.872,-3.8741,-3.8761,-3.8773,-3.8786,-3.8804,-3.8831,-3.8847,-3.8879,-3.8904,-3.8928,-3.8939,-3.8939,-3.8939,-3.8945,-3.8943,-3.8939,-3.8941,-3.8885,-3.8937,-3.8937,-3.8937,-3.8937,-3.8936,-3.8671,-3.869,-3.8713,-3.8739,-3.8756,-3.8775,-3.8795,-3.8808,-3.8831,-3.8858,-3.8863,-3.8891,-3.8911,-3.8944,-3.8957,-3.8978,-3.8973,-3.8981,-3.8983,-3.8985,-3.8986,-3.8936,-3.8983,-3.8983,-3.8983,-3.8982,-3.8982,0,-3.8711,-3.8726,-3.875,-3.8779,-3.88,-3.88,-3.8823,-3.884,-3.8865,-3.8885,-3.8906,-3.8936,-3.8961,-3.8977,-3.9002,-3.9016,-3.9016,-3.9022,-3.9021,-3.9023,-3.8989,-3.8982,-3.9021,-3.9021,-3.9021,-3.9021,-3.9021,-3.9021,-3.8733,-3.8766,-3.8775,-3.8816,-3.8831,-3.886,-3.8873,-3.889,-3.8906,-3.8941,-3.8962,-3.8973,-3.8991,-3.9018,-3.904,-3.9044,-3.9053,-3.9059,-3.9062,-3.903,-3.9026,-3.9022,-3.9015,-3.9061,-3.9061,-3.9094,-3.9095,-3.9095]}]]